Regional Weather Roundup
Issued by NWS Upton, NY

Current Version | Previous Version | Text Only | Print | Product List | Glossary On
Versions: 1 2 3 4 5 6 7 8 9 10 11 12 13 14 15 16 17 18 19 20 21 22 23 24 25 26 27 28
000
ASUS41 KOKX 200608
RWROKX

REGIONAL WEATHER ROUNDUP
NATIONAL WEATHER SERVICE NEW YORK NY
100 AM EST MON FEB 20 2017

NOTE: "FAIR" INDICATES FEW OR NO CLOUDS BELOW 12,000 FEET WITH NO
SIGNIFICANT WEATHER AND/OR OBSTRUCTIONS TO VISIBILITY.

NYZ071-072-176-178-NJZ106-104-200700-
NEW YORK CITY METRO AREA

CITY           SKY/WX    TMP DP  RH WIND       PRES   REMARKS
Central Park   CLEAR     52  33  48 NW6       30.02R
Wall St Helipt NOT AVBL
LaGuardia APRT CLEAR     53  33  46 NW13      30.00R
Kennedy INTL   CLEAR     52  35  52 NW15G25   30.00R
Breezy Point     N/A     50 N/A N/A N9G16       N/A
Newark/Liberty PTCLDY    52  33  48 NW21      30.01R
Teterboro      CLEAR     49  33  54 NW6       30.00R
$$

NYZ177-179-078>081-200700-
LONG ISLAND NEW YORK

CITY           SKY/WX    TMP DP  RH WIND       PRES   REMARKS
Jones Beach      N/A     50 N/A N/A NW10        N/A
Matinecock PT    N/A     52 N/A N/A NW15        N/A
Farmingdale    CLEAR     51  32  48 N10       29.98R
MacArthur/ISP  CLEAR     41  32  70 N8        29.98R
Shirley        CLEAR     42  31  64 NW7       29.98R
Westhampton    CLEAR     36  28  73 N7        29.99R WCI  30
Southampton    NOT AVBL
Bridgehampton  NOT AVBL
East Hampton     N/A     42  30  62 NW3       29.96R
Montauk          N/A     45  34  65 NW9       29.96R
$$

NYZ052-065-067-200700-
HUDSON VALLEY

CITY           SKY/WX    TMP DP  RH WIND       PRES   REMARKS
White Plains   CLEAR     44  31  60 NW8       29.98R
Newburgh       CLEAR     45  34  65 W7        30.00S
Montgomery     CLEAR     38  30  73 SW3       29.99R
Poughkeepsie   CLEAR     40  30  67 CALM      29.99R
Albany         MOCLDY    40  31  70 NW7       30.00R
$$

NJZ001-105-106-008-010-013-015-019>022-104-200700-
NEW JERSEY

CITY           SKY/WX    TMP DP  RH WIND       PRES   REMARKS
Newark/Liberty PTCLDY    52  33  48 NW21      30.01R
Teterboro      CLEAR     49  33  54 NW6       30.00R
Caldwell       CLEAR     50  33  52 NW6       30.03R
Somerville     CLEAR     33  29  85 CALM      30.01R
Linden         NOT AVBL
Sussex         CLEAR     44  32  62 NW3       30.02R
Andover          N/A     34  30  85 SW5       30.03R WCI  30
Trenton        CLEAR     47  32  56 N6        30.02R
Millville      CLEAR     41  36  82 CALM      30.01R
Atlantic City  CLEAR     44  33  65 N5        30.01R
Wrightstown    CLEAR     47  32  57 N8        29.99R
Toms River     CLEAR     47  33  58 N7        30.01R
Belmar         CLEAR     49  33  54 N6        30.01R
$$

PAZ047>061-062-071-200700-
EASTERN PENNSYLVANIA

CITY           SKY/WX    TMP DP  RH WIND       PRES   REMARKS
Philadelphia   CLEAR     52  33  48 N6        30.02R
Allentown      CLEAR     51  31  46 NW14      30.03R
Scranton       CLEAR     42  33  70 VRB5      30.06R
$$

CTZ002-004>006-009-010-012-RIZ004-006-007-MAZ004-011-015-200700-
SOUTHERN NEW ENGLAND
 IN CT

CITY           SKY/WX    TMP DP  RH WIND       PRES   REMARKS
Bradley INTL   PTCLDY    41  31  67 W9        29.96R
Hartford       CLEAR     45  31  58 W7        29.97R
Danbury        CLEAR     30  26  85 SW3       29.99R
Wtrbury/Oxford CLEAR     45  28  53 NW5       29.98S
Bridgeport     CLEAR     45  31  58 NW3       29.99R
Meriden        CLEAR     34  28  79 CALM      29.98R
New Haven      CLEAR     45  31  58 NW5       29.98R
Chester          N/A     46  30  53 NW5       29.96R
Groton         CLEAR     46  31  55 NW7       29.95R
Wilimantic     PTCLDY    42  31  64 NW5       29.96R

 IN RI

CITY           SKY/WX    TMP DP  RH WIND       PRES   REMARKS
Providence     CLEAR     44  30  57 W7        29.93R
Block Island   CLEAR     46  33  60 NW12G17   29.94R
Westerly       CLEAR     48  29  47 W5        29.95R
 IN MA

CITY           SKY/WX    TMP DP  RH WIND       PRES   REMARKS
Boston         CLOUDY    47  31  53 NW7       29.92R
Worcester      CLOUDY    40  29  64 NW6       29.92R
Westfield      PTCLDY    40  31  70 SE3       29.96R
Provincetown   CLOUDY    43  36  76 NW7       29.91R
Nantucket      CLEAR     42  31  64 NW10      29.90R
$$

ANZ330-335-338-340-345-350-353-355-200700-
COASTAL MARINE OBSERVATIONS


STATION/POSITION TIME  SKY/WX   TEMP    WIND        PRES    VSBY  WAVE
                                AIR SEA DIR/SP/G                  HT/PER
                 (UTC)          (F)     (DEG/KT/KT) (MB)    (MI)  (FT/S)
NY HARB ENTRANCE 0450            48 42  330/ 10/ 12 1014.7          2/ 7
20 S FIRE ISLAND 0550            48 40  320/ 14/ 16 1014.9          3/ 7
GREAT SOUTH BAY  NOT AVBL
23 SSW MONTAUK P 0450            46 43              1014.2          3/ 7
15 E BARNEGAT LI 0530               43                N/A           2/ 7
HUDSON CANYON    0450               51              1013.9          3/ 7
KINGS POINT      0542            48 38              1015.3
EXECUTION ROCKS  NOT AVBL
CENTRAL LI SOUND 0530            44     340/ 10/ 12   N/A           0
EASTERN LI SOUND NOT AVBL
ROBBINS REEF     0542            53     330/ 15/ 21 1015.9
$$


>>>>>>>>>>>>>>>>>>>>>>>>>>>> KEY <<<<<<<<<<<<<<<<<<<<<<<<<<<
>                                                          <
>     SKY/WX - Sky Condition/Present Weather               <
>     TMP    - Temperature in Fahrenheit                   <
>     DP     - Dew Point in Fahrenheit                     <
>     RH     - Relative Humidity in Percent                <
>     WIND   - Direction (from) and Speed in MPH           <
>     PRES   - Mean Sea Level Pressure (inches of Hg)      <
>     WCI    - Wind Chill Index                            <
>     VSB    - VISIBILITY IN MILES                         <
>     HX     - HEAT INDEX                                  <
>     TC     - TEMPERATURE IN CELSIUS                      <
>     VRB    - VARIABLE WIND DIRECTION                     <
>                                                          <
>>>>>>>>>>>>>>>>>>>>>>>>>>>> KEY <<<<<<<<<<<<<<<<<<<<<<<<<<<




USA.gov is the U.S. government's official web portal to all federal, state and local government web resources and services.